Weather History for Lewistown, MT

Change the Weather History Date:

Tuesday, June 26, 2012

  Actual Average Record
Temperature  
Mean Temperature 66 °F 61 °F  
Max Temperature 88 °F 75 °F 99 °F (1919)
Min Temperature 44 °F 47 °F 33 °F (1989)
Degree Days  
Heating Degree Days 0 5  
Month to date heating degree days 188 207  
Since 1 June heating degree days 188 207  
Since 1 July heating degree days 7451 8181  
Cooling Degree Days 1 1  
Month to date cooling degree days 21 12  
Year to date cooling degree days 21 14  
Since 1 June cooling degree days 21 12  
Growing Degree Days 20 (Base 50)    
Moisture  
Dew Point 53 °F    
Average Humidity 56    
Maximum Humidity 100    
Minimum Humidity 12    
Precipitation  
Precipitation 0.00 in 0.08 in 1.45 in (1914)
Month to date precipitation 2.70 2.75  
Year to date precipitation 10.69 9.01  
Snow  
Snow 0.00 in - - ()
Snow Depth 0.00 in    
Sea Level Pressure  
Sea Level Pressure 29.61 in    
Wind  
Wind Speed 12 mph (WSW)    
Max Wind Speed 33 mph    
Max Gust Speed 44 mph    
Visibility 10 miles    
Events      
T = Trace of Precipitation, MM = Missing Value Source: NWS Daily Summary

Daily Weather History Graph

Daily Weather History Graph

Search for Another Location

Airport:

Trip Planner

Search our weather history database for the weather conditions in past years. The results will help you decide how hot, cold, wet, or windy it might be!

Date:

Astronomy

Jun. 26, 2012 Rise Set
Actual Time 5:24 AM MDT 9:17 PM MDT
Civil Twilight 4:44 AM MDT 9:57 PM MDT
Nautical Twilight 3:49 AM MDT 10:51 PM MDT
Astronomical Twilight 2:27 AM MDT 12:13 AM MDT
Moon 1:15 PM MDT (6/26) 12:18 AM MDT (6/26)
Length of Visible Light 17h 12m
Length of Day
15h 52m
Waxing Crescent, 46% of the Moon is Illuminated
Jun 26
Waxing Crescent
Jun 26
First Quarter
Jul 3
Full
Jul 10
Last Quarter
Jul 18
New

Hourly Weather History & Observations

Time (MDT) Temp. Dew Point Humidity Pressure Visibility Wind Dir Wind Speed Gust Speed Precip Events Conditions
12:54 AM 64.0 °F 62.1 °F 93% 29.62 in 10.0 mi SW 9.2 mph - N/A   Clear
1:54 AM 64.9 °F 63.0 °F 93% 29.61 in 10.0 mi WSW 8.1 mph - N/A   Clear
2:25 AM 66.2 °F 64.4 °F 94% 29.74 in 10.0 mi WSW 9.2 mph - N/A   Mostly Cloudy
2:54 AM 64.9 °F 63.0 °F 93% 29.59 in 10.0 mi WSW 6.9 mph - N/A   Mostly Cloudy
3:07 AM 64.4 °F 62.6 °F 94% 29.73 in 10.0 mi WSW 5.8 mph - N/A   Partly Cloudy
3:43 AM 62.6 °F 60.8 °F 94% 29.72 in 10.0 mi WSW 5.8 mph - N/A   Mostly Cloudy
3:54 AM 63.0 °F 62.1 °F 97% 29.58 in 10.0 mi WSW 4.6 mph - N/A   Mostly Cloudy
4:33 AM 64.4 °F 62.6 °F 94% 29.71 in 5.0 mi WNW 3.5 mph - N/A   Overcast
4:54 AM 64.0 °F 63.0 °F 96% 29.56 in 7.0 mi East 3.5 mph - N/A   Overcast
5:54 AM 64.9 °F 64.0 °F 97% 29.56 in 7.0 mi SW 5.8 mph - N/A   Overcast
6:06 AM 64.4 °F 64.4 °F 100% 29.69 in 8.0 mi South 3.5 mph - N/A   Overcast
6:54 AM 66.9 °F 64.0 °F 90% 29.54 in 10.0 mi Calm Calm - N/A   Mostly Cloudy
7:15 AM 68.0 °F 62.6 °F 83% 29.67 in 10.0 mi East 8.1 mph - N/A   Scattered Clouds
7:18 AM 68.0 °F 62.6 °F 83% 29.67 in 10.0 mi East 5.8 mph - N/A   Mostly Cloudy
7:32 AM 68.0 °F 62.6 °F 83% 29.67 in 10.0 mi ESE 3.5 mph - N/A   Scattered Clouds
7:39 AM 68.0 °F 62.6 °F 83% 29.66 in 10.0 mi East 4.6 mph - N/A   Mostly Cloudy
7:54 AM 68.0 °F 63.0 °F 84% 29.52 in 10.0 mi ESE 4.6 mph - N/A   Overcast
8:17 AM 69.8 °F 62.6 °F 78% 29.65 in 10.0 mi ESE 4.6 mph - N/A   Scattered Clouds
8:44 AM 69.8 °F 62.6 °F 78% 29.65 in 10.0 mi WNW 3.5 mph - N/A   Mostly Cloudy
8:54 AM 70.0 °F 64.0 °F 81% 29.53 in 10.0 mi West 5.8 mph - N/A   Mostly Cloudy
9:11 AM 69.8 °F 64.4 °F 83% 29.65 in 10.0 mi NW 4.6 mph - N/A   Mostly Cloudy
9:23 AM 69.8 °F 64.4 °F 83% 29.64 in 10.0 mi West 3.5 mph - N/A   Partly Cloudy
9:54 AM 72.0 °F 64.0 °F 76% 29.51 in 10.0 mi Calm Calm - N/A   Clear
10:54 AM 75.9 °F 64.9 °F 69% 29.47 in 10.0 mi SSE 3.5 mph - N/A   Clear
11:54 AM 84.0 °F 41.0 °F 22% 29.44 in 10.0 mi SW 18.4 mph - N/A   Clear
12:54 PM 87.1 °F 30.0 °F 13% 29.43 in 10.0 mi SW 32.2 mph 43.7 mph N/A   Clear
1:54 PM 87.1 °F 32.0 °F 14% 29.43 in 10.0 mi SW 24.2 mph 32.2 mph N/A   Clear
2:54 PM 86.0 °F 30.9 °F 14% 29.46 in 10.0 mi WSW 24.2 mph 32.2 mph N/A   Clear
3:54 PM 84.9 °F 27.0 °F 12% 29.51 in 10.0 mi WSW 27.6 mph 40.3 mph N/A   Clear
4:15 PM 75.2 °F 48.2 °F 38% 29.66 in 10.0 mi NW 18.4 mph 33.4 mph N/A   Clear
4:54 PM 75.0 °F 43.0 °F 32% 29.55 in 10.0 mi WNW 24.2 mph 33.4 mph N/A   Clear
5:54 PM 72.0 °F 41.0 °F 33% 29.58 in 10.0 mi NW 21.9 mph 31.1 mph N/A   Clear
6:54 PM 70.0 °F 37.0 °F 30% 29.61 in 10.0 mi NW 20.7 mph 31.1 mph N/A   Clear
7:54 PM 64.9 °F 36.0 °F 34% 29.67 in 10.0 mi WNW 18.4 mph 29.9 mph N/A   Clear
8:54 PM 61.0 °F 32.0 °F 34% 29.71 in 10.0 mi WNW 15.0 mph 23.0 mph N/A   Clear
9:54 PM 57.0 °F 34.0 °F 42% 29.74 in 10.0 mi WSW 4.6 mph - N/A   Clear
10:54 PM 52.0 °F 32.0 °F 47% 29.75 in 10.0 mi WSW 8.1 mph - N/A   Clear
11:54 PM 50.0 °F 32.0 °F 50% 29.74 in 10.0 mi SW 6.9 mph - N/A   Clear